| time (UTC) | temp F | wind direction | speed MPH | gust MPH | rain 1hr in | rain 24hr in | rain mn in | humidity % | barometer mb |
| 20260508121554 | 50 | 26 | 0.0 | 2.0 | 0.00 | 0.00 | 0.00 | 58 | 1025.7 |
| 20260508120051 | 48 | 26 | 0.0 | 0.0 | 0.00 | 0.00 | 0.00 | 62 | 1025.7 |
| 20260508114602 | 45 | 26 | 0.0 | 0.0 | 0.00 | 0.00 | 0.00 | 71 | 1025.7 |
| 20260508113046 | 43 | 26 | 0.0 | 0.0 | 0.00 | 0.00 | 0.00 | 75 | 1025.7 |
| 20260508111557 | 41 | 26 | 0.0 | 0.0 | 0.00 | 0.00 | 0.00 | 79 | 1025.7 |
| 20260508110042 | 40 | 26 | 0.0 | 0.0 | 0.00 | 0.00 | 0.00 | 81 | 1025.7 |
| 20260508104541 | 40 | 26 | 0.0 | 0.0 | 0.00 | 0.00 | 0.00 | 82 | 1025.7 |
| 20260508103040 | 40 | 26 | 0.0 | 0.0 | 0.00 | 0.00 | 0.00 | 83 | 1025.7 |
| 20260508101539 | 39 | 26 | 0.0 | 0.0 | 0.00 | 0.00 | 0.00 | 84 | 1025.7 |
| 20260508100038 | 38 | 26 | 0.0 | 0.0 | 0.00 | 0.00 | 0.00 | 84 | 1025.7 |
| 20260508094537 | 38 | 26 | 0.0 | 0.0 | 0.00 | 0.00 | 0.00 | 84 | 1025.7 |
| 20260508093035 | 38 | 26 | 0.0 | 0.0 | 0.00 | 0.00 | 0.00 | 84 | 1025.7 |
| 20260508091543 | 38 | 26 | 0.0 | 0.0 | 0.00 | 0.00 | 0.00 | 86 | 1025.7 |
| 20260508090033 | 38 | 26 | 0.0 | 0.0 | 0.00 | 0.00 | 0.00 | 86 | 1025.7 |
| 20260508084532 | 38 | 26 | 0.0 | 0.0 | 0.00 | 0.00 | 0.00 | 85 | 1025.7 |
| 20260508083030 | 38 | 26 | 0.0 | 0.0 | 0.00 | 0.00 | 0.00 | 83 | 1025.7 |
| 20260508081537 | 39 | 26 | 0.0 | 0.0 | 0.00 | 0.00 | 0.00 | 83 | 1025.7 |
| 20260508080025 | 39 | 26 | 0.0 | 0.0 | 0.00 | 0.00 | 0.00 | 82 | 1025.7 |
| 20260508074526 | 40 | 26 | 0.0 | 0.0 | 0.00 | 0.00 | 0.00 | 81 | 1025.7 |
| 20260508073022 | 40 | 26 | 0.0 | 0.0 | 0.00 | 0.00 | 0.00 | 80 | 1025.7 |
| 20260508071520 | 40 | 26 | 0.0 | 0.0 | 0.00 | 0.00 | 0.00 | 78 | 1025.7 |
| 20260508070017 | 41 | 26 | 0.0 | 0.0 | 0.00 | 0.00 | 0.00 | 77 | 1025.7 |
| 20260508064524 | 41 | 26 | 0.0 | 0.0 | 0.00 | 0.00 | 0.00 | 75 | 1025.7 |
| 20260508063013 | 42 | 26 | 0.0 | 0.0 | 0.00 | 0.00 | 0.00 | 73 | 1025.7 |
| 20260508061510 | 43 | 26 | 0.0 | 0.0 | 0.00 | 0.00 | 0.00 | 74 | 1025.7 |
| 20260508060008 | 44 | 26 | 0.0 | 0.0 | 0.00 | 0.00 | 0.00 | 73 | 1025.7 |
| 20260508054509 | 44 | 26 | 0.0 | 0.0 | 0.00 | 0.00 | 0.00 | 73 | 1025.7 |
| 20260508053002 | 45 | 26 | 0.0 | 0.0 | 0.00 | 0.00 | 0.00 | 70 | 1025.7 |
| 20260508051607 | 45 | 26 | 0.0 | 0.0 | 0.00 | 0.00 | 0.00 | 69 | 1025.7 |
| 20260508050058 | 46 | 26 | 0.0 | 0.0 | 0.00 | 0.00 | 0.00 | 70 | 1025.7 |
| 20260508044555 | 47 | 26 | 0.0 | 0.0 | 0.00 | 0.00 | 0.00 | 69 | 1025.7 |
| 20260508043054 | 47 | 26 | 0.0 | 0.0 | 0.00 | 0.00 | 0.00 | 64 | 1025.7 |
| 20260508041550 | 48 | 26 | 0.0 | 0.0 | 0.00 | 0.00 | 0.00 | 64 | 1025.7 |
| 20260508040048 | 48 | 26 | 0.0 | 0.0 | 0.00 | 0.00 | 0.00 | 63 | 1025.7 |
| 20260508034550 | 48 | 26 | 0.0 | 0.0 | 0.00 | 0.00 | 0.00 | 62 | 1025.7 |
| 20260508033048 | 48 | 26 | 0.0 | 0.0 | 0.00 | 0.00 | 0.00 | 63 | 1025.7 |
| 20260508031545 | 48 | 26 | 0.0 | 0.0 | 0.00 | 0.00 | 0.00 | 62 | 1025.7 |
| 20260508030043 | 49 | 26 | 0.0 | 0.0 | 0.00 | 0.00 | 0.00 | 61 | 1025.7 |
| 20260508024554 | 49 | 26 | 0.0 | 0.0 | 0.00 | 0.00 | 0.00 | 59 | 1025.7 |
| 20260508023044 | 49 | 26 | 0.0 | 0.0 | 0.00 | 0.00 | 0.00 | 66 | 1025.7 |
| 20260508021542 | 49 | 26 | 0.0 | 0.0 | 0.00 | 0.00 | 0.00 | 58 | 1025.7 |
| 20260508020042 | 50 | 26 | 0.0 | 0.0 | 0.00 | 0.00 | 0.00 | 61 | 1025.7 |
| 20260508014541 | 50 | 26 | 0.0 | 0.0 | 0.00 | 0.00 | 0.00 | 61 | 1025.7 |
| 20260508013040 | 50 | 26 | 0.0 | 0.0 | 0.00 | 0.00 | 0.00 | 57 | 1025.7 |
| 20260508011540 | 51 | 26 | 0.0 | 0.0 | 0.00 | 0.00 | 0.00 | 56 | 1025.7 |
| 20260508010041 | 52 | 26 | 0.0 | 0.0 | 0.00 | 0.00 | 0.00 | 55 | 1025.7 |
| 20260508004542 | 53 | 26 | 0.0 | 0.0 | 0.00 | 0.00 | 0.00 | 57 | 1025.7 |
| 20260508003038 | 54 | 26 | 0.0 | 0.0 | 0.00 | 0.00 | 0.00 | 52 | 1025.7 |
| 20260508001539 | 56 | 26 | 0.0 | 0.0 | 0.00 | 0.00 | 0.00 | 44 | 1025.7 |
| 20260508000037 | 57 | 26 | 0.0 | 0.0 | 0.00 | 0.00 | 0.00 | 42 | 1025.7 |
| 20260507234542 | 58 | 26 | 0.0 | 4.0 | 0.00 | 0.00 | 0.00 | 41 | 1025.7 |
| 20260507233036 | 58 | 26 | 0.0 | 0.0 | 0.00 | 0.00 | 0.00 | 40 | 1025.7 |
| 20260507231543 | 59 | 26 | 0.0 | 0.0 | 0.00 | 0.00 | 0.00 | 39 | 1025.7 |
| 20260507230034 | 60 | 26 | 0.0 | 0.0 | 0.00 | 0.00 | 0.00 | 38 | 1025.7 |
| 20260507224535 | 60 | 27 | 0.0 | 0.0 | 0.00 | 0.00 | 0.00 | 37 | 1025.7 |
| 20260507223034 | 61 | 26 | 0.0 | 4.0 | 0.00 | 0.00 | 0.00 | 37 | 1025.7 |
| 20260507221533 | 61 | 68 | 0.0 | 6.0 | 0.00 | 0.00 | 0.00 | 38 | 1025.7 |
| 20260507220033 | 62 | 65 | 0.0 | 2.0 | 0.00 | 0.00 | 0.00 | 36 | 1025.7 |
| 20260507214531 | 62 | 64 | 0.0 | 5.0 | 0.00 | 0.00 | 0.00 | 36 | 1025.7 |
| 20260507213035 | 62 | 98 | 1.0 | 7.0 | 0.00 | 0.00 | 0.00 | 37 | 1025.7 |
| 20260507211533 | 63 | 47 | 2.0 | 8.0 | 0.00 | 0.00 | 0.00 | 37 | 1025.7 |
| 20260507210030 | 63 | 329 | 0.0 | 4.0 | 0.00 | 0.00 | 0.00 | 35 | 1025.7 |
| 20260507204529 | 63 | 81 | 0.0 | 8.0 | 0.00 | 0.00 | 0.00 | 36 | 1025.7 |
| 20260507203031 | 63 | 20 | 0.0 | 7.0 | 0.00 | 0.00 | 0.00 | 36 | 1025.7 |
| 20260507201529 | 63 | 13 | 0.0 | 5.0 | 0.00 | 0.00 | 0.00 | 35 | 1025.7 |
| 20260507200027 | 63 | 6 | 0.0 | 5.0 | 0.00 | 0.00 | 0.00 | 34 | 1025.7 |
| 20260507194531 | 64 | 54 | 0.0 | 6.0 | 0.00 | 0.00 | 0.00 | 34 | 1025.7 |
| 20260507193026 | 64 | 71 | 0.0 | 6.0 | 0.00 | 0.00 | 0.00 | 33 | 1025.7 |
| 20260507191524 | 64 | 50 | 1.0 | 8.0 | 0.00 | 0.00 | 0.00 | 33 | 1025.7 |
| 20260507190023 | 65 | 36 | 0.0 | 5.0 | 0.00 | 0.00 | 0.00 | 33 | 1025.7 |
| 20260507184521 | 65 | 324 | 0.0 | 7.0 | 0.00 | 0.00 | 0.00 | 33 | 1025.7 |
| 20260507183020 | 65 | 88 | 3.0 | 8.0 | 0.00 | 0.00 | 0.00 | 36 | 1025.7 |
| 20260507181518 | 65 | 61 | 1.0 | 8.0 | 0.00 | 0.00 | 0.00 | 34 | 1025.7 |
| 20260507180016 | 65 | 33 | 0.0 | 5.0 | 0.00 | 0.00 | 0.00 | 39 | 1025.7 |
| 20260507174516 | 65 | 77 | 1.0 | 7.0 | 0.00 | 0.00 | 0.00 | 37 | 1025.7 |
| 20260507173026 | 65 | 339 | 0.0 | 6.0 | 0.00 | 0.00 | 0.00 | 39 | 1025.7 |
| 20260507171513 | 64 | 79 | 2.0 | 9.0 | 0.00 | 0.00 | 0.00 | 43 | 1025.7 |
| 20260507170008 | 63 | 88 | 0.0 | 7.0 | 0.00 | 0.00 | 0.00 | 52 | 1025.7 |
| 20260507164507 | 63 | 280 | 1.0 | 6.0 | 0.00 | 0.00 | 0.00 | 56 | 1025.7 |
| 20260507163006 | 61 | 12 | 0.0 | 5.0 | 0.00 | 0.00 | 0.00 | 56 | 1025.7 |
| 20260507161514 | 64 | 29 | 0.0 | 2.0 | 0.00 | 0.00 | 0.00 | 55 | 1025.7 |
| 20260507160003 | 64 | 51 | 0.0 | 5.0 | 0.00 | 0.00 | 0.00 | 56 | 1025.7 |
| 20260507154600 | 62 | 14 | 0.0 | 4.0 | 0.00 | 0.00 | 0.00 | 57 | 1025.7 |
| 20260507153058 | 62 | 45 | 0.0 | 4.0 | 0.00 | 0.00 | 0.00 | 54 | 1025.7 |
| 20260507151558 | 62 | 14 | 0.0 | 7.0 | 0.00 | 0.00 | 0.00 | 57 | 1025.7 |
| 20260507150055 | 62 | 27 | 0.0 | 2.0 | 0.00 | 0.00 | 0.00 | 52 | 1025.7 |
| 20260507144614 | 61 | 307 | 0.0 | 4.0 | 0.00 | 0.00 | 0.00 | 55 | 1025.7 |
| 20260507143049 | 61 | 109 | 0.0 | 4.0 | 0.00 | 0.00 | 0.00 | 58 | 1025.7 |
| 20260507141553 | 60 | 125 | 0.0 | 4.0 | 0.00 | 0.00 | 0.00 | 59 | 1025.7 |
| 20260507140039 | 59 | 45 | 0.0 | 2.0 | 0.00 | 0.00 | 0.00 | 60 | 1025.7 |
| 20260507134537 | 58 | 46 | 0.0 | 5.0 | 0.00 | 0.00 | 0.00 | 64 | 1025.7 |
| 20260507133036 | 57 | 244 | 0.0 | 1.0 | 0.00 | 0.00 | 0.00 | 66 | 1025.7 |
| 20260507131527 | 56 | 37 | 0.0 | 2.0 | 0.00 | 0.00 | 0.00 | 72 | 1025.7 |
| 20260507130022 | 55 | 52 | 0.0 | 0.0 | 0.00 | 0.00 | 0.00 | 77 | 1025.7 |
| 20260507124517 | 53 | 54 | 0.0 | 7.0 | 0.00 | 0.00 | 0.00 | 77 | 1025.7 |
| 20260507123013 | 52 | 72 | 0.0 | 4.0 | 0.00 | 0.00 | 0.00 | 77 | 1025.7 |